EA4LT-13 Weather Reports


Display with metric or nautical units.
time (UTC)temp
F
wind
direction
speed
MPH
gust
MPH
rain 1hr
in
rain 24hr
in
rain mn
in
humidity
%
barometer
mb
20260508191710 63 112 3.0 8.0 0.00 0.00 0.00 48 1005.5
20260508190210 63 180 3.0 8.0 0.00 0.00 0.00 47 1005.4
20260508184710 64 135 5.0 8.0 0.00 0.00 0.00 46 1005.6
20260508183210 64 158 3.0 10.0 0.00 0.00 0.00 45 1005.2
20260508181710 65 180 5.0 11.0 0.00 0.00 0.00 45 1005.7
20260508180210 65 112 3.0 8.0 0.00 0.00 0.00 44 1005.5
20260508174709 65 180 4.0 6.0 0.00 0.00 0.00 44 1005.7
20260508173210 65 202 3.0 9.0 0.00 0.00 0.00 43 1005.7
20260508171709 65 202 3.0 8.0 0.00 0.00 0.00 42 1006.0
20260508170208 66 158 3.0 9.0 0.00 0.00 0.00 41 1006.0
20260508164710 66 158 4.0 10.0 0.00 0.00 0.00 40 1006.0
20260508163208 66 158 6.0 10.0 0.00 0.00 0.00 41 1006.0
20260508161709 68 135 2.0 11.0 0.00 0.00 0.00 40 1006.1
20260508160209 68 202 3.0 9.0 0.00 0.00 0.00 40 1006.4
20260508154709 66 225 5.0 8.0 0.00 0.00 0.00 43 1006.6
20260508153208 64 180 3.0 10.0 0.00 0.00 0.00 47 1006.9
20260508151709 64 158 2.0 9.0 0.00 0.00 0.00 47 1006.7
20260508150209 65 158 3.0 11.0 0.00 0.00 0.00 46 1006.6
20260508144708 64 158 3.0 12.0 0.00 0.00 0.00 47 1007.0
20260508143209 66 202 4.0 10.0 0.00 0.00 0.00 46 1007.0
20260508141708 65 202 4.0 10.0 0.00 0.00 0.00 45 1007.4
20260508140209 65 180 3.0 11.0 0.00 0.00 0.00 46 1007.6
20260508134707 65 158 1.0 15.0 0.00 0.00 0.00 44 1007.4
20260508133209 66 180 6.0 10.0 0.00 0.00 0.00 45 1007.8
20260508131709 63 292 6.0 11.0 0.00 0.00 0.00 47 1007.8
20260508130208 64 180 3.0 9.0 0.00 0.00 0.00 47 1008.0
20260508124709 63 180 6.0 11.0 0.00 0.00 0.00 46 1008.1
20260508123208 62 202 3.0 9.0 0.00 0.00 0.00 50 1008.0
20260508121707 64 180 3.0 8.0 0.00 0.00 0.00 48 1008.1
20260508120208 64 315 5.0 9.0 0.00 0.00 0.00 49 1008.2
20260508114708 62 202 4.0 11.0 0.00 0.00 0.00 50 1008.4
20260508113207 62 225 1.0 6.0 0.00 0.00 0.00 49 1008.5
20260508111708 61 180 3.0 9.0 0.00 0.00 0.00 50 1008.6
20260508110209 63 180 0.0 6.0 0.00 0.00 0.00 49 1008.8
20260508104707 62 292 1.0 10.0 0.00 0.00 0.00 49 1008.8
20260508103208 61 158 3.0 8.0 0.00 0.00 0.00 51 1008.8
20260508101707 61 158 3.0 13.0 0.00 0.00 0.00 52 1009.0
20260508100207 62 202 3.0 11.0 0.00 0.00 0.00 51 1009.0
20260508094708 62 180 1.0 10.0 0.00 0.00 0.00 51 1009.0
20260508093207 60 338 6.0 11.0 0.00 0.00 0.00 52 1009.0
20260508091707 60 135 4.0 11.0 0.00 0.00 0.00 53 1008.7
20260508090207 60 112 1.0 9.0 0.00 0.00 0.00 55 1008.7
20260508084706 58 158 3.0 9.0 0.00 0.00 0.00 57 1008.7
20260508083208 59 180 3.0 8.0 0.00 0.00 0.00 54 1008.5
20260508081707 58 180 3.0 10.0 0.00 0.00 0.00 61 1008.5
20260508080206 57 225 3.0 6.0 0.00 0.00 0.00 66 1008.4
20260508074707 57 225 2.0 9.0 0.00 0.00 0.00 69 1008.7
20260508073207 54 202 2.0 6.0 0.00 0.00 0.00 75 1008.4
20260508071706 53 180 2.0 6.0 0.00 0.00 0.00 75 1008.2
20260508070206 54 270 3.0 6.0 0.00 0.00 0.00 72 1008.2
20260508064707 52 180 0.0 4.0 0.00 0.00 0.00 79 1008.0
20260508063206 51 158 2.0 6.0 0.00 0.00 0.00 80 1008.1
20260508061706 51 180 2.0 6.0 0.00 0.00 0.00 77 1007.8
20260508060207 51 202 2.0 6.0 0.00 0.00 0.00 76 1007.4
20260508054706 51 225 1.0 4.0 0.00 0.00 0.00 76 1007.4
20260508053207 51 225 1.0 6.0 0.00 0.00 0.00 76 1007.3
20260508051707 51 225 3.0 6.0 0.00 0.00 0.00 76 1007.2
20260508050205 52 202 3.0 4.0 0.00 0.00 0.00 75 1006.8
20260508044705 52 180 2.0 6.0 0.00 0.00 0.00 78 1006.9
20260508043205 52 202 1.0 4.0 0.00 0.00 0.00 78 1007.1
20260508041705 52 180 4.0 6.0 0.00 0.00 0.00 77 1007.0
20260508040206 53 202 3.0 6.0 0.00 0.00 0.00 76 1007.2
20260508034706 53 180 1.0 3.0 0.00 0.00 0.00 72 1007.3
20260508033205 54 202 1.0 3.0 0.00 0.00 0.00 69 1007.2
20260508031705 54 202 0.0 2.0 0.00 0.00 0.00 69 1007.0
20260508030204 54 202 0.0 3.0 0.00 0.00 0.00 68 1006.9
20260508024705 54 292 1.0 4.0 0.00 0.00 0.00 67 1007.2
20260508023204 54 270 3.0 6.0 0.00 0.00 0.00 68 1007.1
20260508021706 54 292 3.0 6.0 0.00 0.00 0.00 67 1007.2
20260508020206 54 292 4.0 8.0 0.00 0.00 0.00 67 1007.4
20260508014705 53 315 3.0 6.0 0.00 0.00 0.00 71 1007.4
20260508013204 53 315 2.0 4.0 0.00 0.00 0.00 72 1007.3
20260508011704 54 292 0.0 3.0 0.00 0.00 0.00 74 1007.7
20260508010205 53 315 0.0 3.0 0.00 0.00 0.00 76 1007.6
20260508004705 54 292 0.0 6.0 0.00 0.00 0.00 75 1007.5
20260508003204 54 315 3.0 6.0 0.00 0.00 0.00 74 1007.9
20260508001704 54 292 1.0 3.0 0.00 0.00 0.00 74 1008.1
20260508000205 54 292 2.0 4.0 0.00 0.00 0.00 74 1007.6
20260507234705 54 292 3.0 6.0 0.00 0.00 0.00 74 1007.9
20260507233204 55 315 4.0 10.0 0.00 0.00 0.00 73 1007.7
20260507231705 54 292 3.0 6.0 0.00 0.00 0.00 76 1007.9
20260507230204 54 315 3.0 6.0 0.00 0.00 0.00 75 1008.0
20260507224703 55 315 3.0 8.0 0.00 0.00 0.00 74 1007.9
20260507223204 55 292 5.0 13.0 0.00 0.00 0.00 73 1008.0
20260507221704 55 315 6.0 13.0 0.00 0.00 0.00 73 1008.2
20260507220204 56 315 6.0 12.0 0.00 0.00 0.00 73 1008.1
20260507214704 56 270 7.0 11.0 0.00 0.00 0.00 73 1008.3
20260507213204 56 315 7.0 12.0 0.00 0.00 0.00 73 1008.1
20260507211704 56 338 9.0 15.0 0.00 0.00 0.00 72 1008.3
20260507210204 57 315 9.0 15.0 0.00 0.00 0.00 71 1008.1
20260507204704 58 292 7.0 22.0 0.00 0.00 0.00 69 1008.0
20260507203204 59 292 8.0 15.0 0.00 0.00 0.00 66 1007.9
20260507201703 60 292 12.0 15.0 0.00 0.00 0.00 58 1007.5
20260507200204 61 270 3.0 10.0 0.00 0.00 0.00 54 1007.6
20260507194704 62 292 5.0 10.0 0.00 0.00 0.00 53 1007.3
20260507193203 62 270 3.0 6.0 0.00 0.00 0.00 53 1007.2